Aérodrome :
LOGIN :

S'inscrire | Disclaimer

   EN    FR    IT 

 










Légende :    VFR   VFR Marginal   IFR   IFR Intensif   IFR Très Intensif
Visi : 
Plafond : 
>= 8 km
>= 3000ft
5 à 8 km
1000 à 3000 ft
1500m à 5 km
500 à 1000 ft
800 à 1500m
200 à 500 ft
< 800m
< 200 ft
Symboles :   Orages  Brouillard  Fortes neiges  Fortes précipitations  Vent > 20 kt
SIGMETs :   Divers  Orages  Givrage  Turbulence  Onde Orograph.  Cendres Volcan.







- Altitude de l'aérodrome : 13 ft
- Code IATA : CEQ
- Voir les cartes d'approche


LFMD - Cannes Mandelieu

DERNIER METAR :
  • 160400Z AUTO 36003KT 310V070 CAVOK 16/12 Q1013 NOSIG

METARs EXPIRÉS :
  • 160330Z AUTO 36004KT 320V040 CAVOK 16/13 Q1012 NOSIG
  • 160300Z AUTO 01005KT 340V040 CAVOK 16/13 Q1012 NOSIG
  • 160230Z AUTO 36005KT 320V030 CAVOK 16/14 Q1012 NOSIG
  • 160200Z AUTO 36004KT 330V040 CAVOK 17/14 Q1012
  • 160130Z AUTO 01003KT 330V060 CAVOK 17/14 Q1012

TAF TAF LFMD
Valide du 16 à 03h jusqu'au 17 à 03h UTC


160200Z 1603/1703 VRB03KT CAVOK
BECMG 1608/1610 16010KT
BECMG 1619/1621 VRB03KT
ATIS : +33 4 93 48 73 23
Pas de NOTAMs connus pour ce terrain.



MET'MAP, la Météo Aéronautique d'un coup d'oeil ! - Copyright ORBIFLY Décembre 2007 - Disclaimer

ORBIFLY MET'MAP TEAM :

Programmation & Développement : Alexandra Zaïnal
Conception & Développement : Baudouin d'Aumeries
Co-Programmation & Développement : Marc-Olivier Méhu
Soutien technique & logistique : Manuel Goepfert

Contact : metmap@orbifly.com




SOURCES & CREDITS :

   NOAA